DRI Storm Peak Lab. Weather observations

Data are for 5 minute period ending at time listed.
 Day   Time    Ave.   Ave.  Ave.  Vector  Max.   Total    Baro.    Solar      Aerosol      Ave.  Ultrafine   Snow  
  of    of     Air    Rel.  Wind   Wind   Wind  Precip.   Pres.  Radiation   Aerosol      Ozone   Aerosol    Depth 
Year   Day     Temp.  Hum.  Speed  Dir.   Gust                               Ave.   Max.            Ave.           
2017   (MST)    F      %     mph   deg.    mph    in.      mb.     w/m2         #/cm3      ppbv    #/cm3      in.  
-------------------------------------------------------------------------------------------------------------------
  87    3:05   24.2   100    1.8   134     1.8   999.00    682.4    999.0    999000   999000   999.0    999000   999.0
  87    3:10   24.2   100    1.8   134     1.8   999.00    682.5    999.0    999000   999000   999.0    999000   999.0
  87    3:15   24.3   100    1.8   134     1.8   999.00    682.4    999.0    999000   999000   999.0    999000   999.0
  87    3:20   24.3   100    1.8   134     1.8   999.00    682.5    999.0    999000   999000   999.0    999000   999.0
  87    3:25   24.2   100    1.8   134     1.8   999.00    682.5    999.0    999000   999000   999.0    999000   999.0
  87    3:30   24.2   100    1.8   134     1.8   999.00    682.5    999.0    999000   999000   999.0    999000   999.0
  87    3:35   24.2   100    1.8   134     1.8   999.00    682.4    999.0    999000   999000   999.0    999000   999.0
  87    3:40   24.4   100    1.8   134     1.8   999.00    682.4    999.0    999000   999000   999.0    999000   999.0
  87    3:45   24.4   100    1.8   134     1.8   999.00    682.4    999.0    999000   999000   999.0    999000   999.0
  87    3:50   24.4   100    1.8   134     1.8   999.00    682.4    999.0    999000   999000   999.0    999000   999.0
  87    3:55   24.3   100    1.8   134     1.8   999.00    682.4    999.0    999000   999000   999.0    999000   999.0
  87    4:00   24.4   100    1.8   134     1.8   999.00    682.4    999.0    999000   999000   999.0    999000   999.0
  87    4:05   24.4   100    1.8   134     1.8   999.00    682.5    999.0    999000   999000   999.0    999000   999.0
  87    4:10   24.4   100    1.8   134     1.8   999.00    682.5    999.0    999000   999000   999.0    999000   999.0
  87    4:15   24.4   100    1.8   134     1.8   999.00    682.5    999.0    999000   999000   999.0    999000   999.0
  87    4:20   24.4   100    1.8   134     1.8   999.00    682.4    999.0    999000   999000   999.0    999000   999.0
  87    4:25   24.4   100    1.8   134     1.8   999.00    682.4    999.0    999000   999000   999.0    999000   999.0
  87    4:30   24.4   100    1.9   134     2.5   999.00    682.4    999.0    999000   999000   999.0    999000   999.0
  87    4:35   24.3   100    1.8   134     2.4   999.00    682.5    999.0    999000   999000   999.0    999000   999.0
  87    4:40   24.4   100    1.8   134     1.8   999.00    682.4    999.0    999000   999000   999.0    999000   999.0
  87    4:45   24.3   100    1.8   134     1.8   999.00    682.4    999.0    999000   999000   999.0    999000   999.0
  87    4:50   24.4   100    1.8   134     1.8   999.00    682.4    999.0    999000   999000   999.0    999000   999.0
  87    4:55   24.3   100    1.8   134     1.8   999.00    682.5    999.0    999000   999000   999.0    999000   999.0
  87    5:00   24.4   100    1.8   134     2.0   999.00    682.5    999.0    999000   999000   999.0    999000   999.0
  87    5:05   24.3   100    1.8   134     1.8   999.00    682.5    999.0    999000   999000   999.0    999000   999.0
  87    5:10   24.4   100    1.8   134     1.8   999.00    682.5    999.0    999000   999000   999.0    999000   999.0
  87    5:15   24.4   100    1.8   134     2.0   999.00    682.5    999.0    999000   999000   999.0    999000   999.0
  87    5:20   24.4   100    1.8   133     2.0   999.00    682.5    999.0    999000   999000   999.0    999000   999.0
  87    5:25   24.4   100    1.8   133     1.8   999.00    682.5    999.0    999000   999000   999.0    999000   999.0
  87    5:30   24.4   100    1.8   133     1.8   999.00    682.6    999.0    999000   999000   999.0    999000   999.0
  87    5:35   24.4   100    1.8   133     2.0   999.00    682.5    999.0    999000   999000   999.0    999000   999.0
  87    5:40   24.4   100    1.8   133     1.8   999.00    682.6    999.0    999000   999000   999.0    999000   999.0
  87    5:45   24.4   100    1.8   133     1.8   999.00    682.6    999.0    999000   999000   999.0    999000   999.0
  87    5:50   24.5   100    1.8   133     1.8   999.00    682.6    999.0    999000   999000   999.0    999000   999.0
  87    5:55   24.4   100    1.8   133     1.8   999.00    682.6    999.0    999000   999000   999.0    999000   999.0
  87    6:00   24.4   100    1.8   133     1.8   999.00    682.6    999.0    999000   999000   999.0    999000   999.0
  87    6:05   24.3   100    1.8   133     1.8   999.00    682.6    999.0    999000   999000   999.0    999000   999.0
  87    6:10   24.3   100    1.8   133     1.8   999.00    682.7    999.0    999000   999000   999.0    999000   999.0
  87    6:15   24.3   100    1.8   133     1.8   999.00    682.8    999.0    999000   999000   999.0    999000   999.0
  87    6:20   24.3   100    1.8   133     1.8   999.00    682.8    999.0    999000   999000   999.0    999000   999.0
  87    6:25   24.3   100    1.8   133     1.8   999.00    682.8    999.0    999000   999000   999.0    999000   999.0
  87    6:30   24.2   100    1.8   133     1.8   999.00    682.9    999.0    999000   999000   999.0    999000   999.0
  87    6:35   24.3   100    1.8   133     1.8   999.00    682.9    999.0    999000   999000   999.0    999000   999.0
  87    6:40   24.3   100    1.8   133     1.8   999.00    683.0    999.0    999000   999000   999.0    999000   999.0
  87    6:45   24.3   100    1.8   133     1.8   999.00    683.0    999.0    999000   999000   999.0    999000   999.0
  87    6:50   24.3   100    1.8   133     1.8   999.00    683.1    999.0    999000   999000   999.0    999000   999.0
  87    6:55   24.4   100    1.8   133     1.8   999.00    683.1    999.0    999000   999000   999.0    999000   999.0
  87    7:00   24.4   100    1.8   133     1.8   999.00    683.1    999.0    999000   999000   999.0    999000   999.0
  87    7:05   24.4   100    1.8   133     1.8   999.00    683.2    999.0    999000   999000   999.0    999000   999.0
  87    7:10   24.5   100    1.8   133     1.8   999.00    683.1    999.0    999000   999000   999.0    999000   999.0
  87    7:15   24.6   100    1.8   133     1.8   999.00    683.2    999.0    999000   999000   999.0    999000   999.0
  87    7:20   24.8   100    1.8   133     1.8   999.00    683.2    999.0    999000   999000   999.0    999000   999.0
  87    7:25   24.9   100    1.8   133     1.8   999.00    683.2    999.0    999000   999000   999.0    999000   999.0
  87    7:30   24.9   100    1.8   133     1.8   999.00    683.2    999.0    999000   999000   999.0    999000   999.0
  87    7:35   25.1   100    1.8   133     1.8   999.00    683.2    999.0    999000   999000   999.0    999000   999.0
  87    7:40   25.3   100    1.8   133     1.8   999.00    683.2    999.0    999000   999000   999.0    999000   999.0
  87    7:45   25.2   100    1.8   133     1.8   999.00    683.2    999.0    999000   999000   999.0    999000   999.0
  87    7:50   25.0   100    1.8   133     1.8   999.00    683.2    999.0    999000   999000   999.0    999000   999.0
  87    7:55   25.2   100    1.8   133     1.8   999.00    683.2    999.0    999000   999000   999.0    999000   999.0
  87    8:00   25.3   100    1.8   133     1.8   999.00    683.2    999.0    999000   999000   999.0    999000   999.0
  87    8:05   25.3   100    1.8   133     1.8   999.00    683.2    999.0    999000   999000   999.0    999000   999.0
  87    8:10   25.4   100    1.8   133     1.8   999.00    683.3    999.0    999000   999000   999.0    999000   999.0
  87    8:15   25.4   100    1.8   133     1.8   999.00    683.3    999.0    999000   999000   999.0    999000   999.0
  87    8:20   25.6   100    1.8   133     1.8   999.00    683.3    999.0    999000   999000   999.0    999000   999.0
  87    8:25   25.7   100    1.8   133     1.8   999.00    683.3    999.0    999000   999000   999.0    999000   999.0
  87    8:30   25.7   100    1.8   133     1.8   999.00    683.2    999.0    999000   999000   999.0    999000   999.0
  87    8:35   25.6   100    1.8   133     1.8   999.00    683.3    999.0    999000   999000   999.0    999000   999.0
  87    8:40   25.2   100    1.8   133     1.8   999.00    683.3    999.0    999000   999000   999.0    999000   999.0
  87    8:45   25.2   100    1.8   133     1.8   999.00    683.4    999.0    999000   999000   999.0    999000   999.0
  87    8:50   25.5   100    1.8   133     1.8   999.00    683.3    999.0    999000   999000   999.0    999000   999.0
  87    8:55   25.5   100    1.8   133     1.8   999.00    683.4    999.0    999000   999000   999.0    999000   999.0
  87    9:00   25.4   100    1.8   133     1.8   999.00    683.5    999.0    999000   999000   999.0    999000   999.0
  87    9:05   25.5   100    1.8   133     1.8   999.00    683.5    999.0    999000   999000   999.0    999000   999.0
  87    9:10   25.5   100    1.8   133     1.8   999.00    683.5    999.0    999000   999000   999.0    999000   999.0
  87    9:15   25.5   100    1.8   133     2.0   999.00    683.5    999.0    999000   999000   999.0    999000   999.0
  87    9:20   25.4   100    1.8   133     2.2   999.00    683.5    999.0    999000   999000   999.0    999000   999.0
  87    9:25   25.2   100    1.8   133     2.0   999.00    683.6    999.0    999000   999000   999.0    999000   999.0
  87    9:30   25.3   100    1.8   133     1.8   999.00    683.6    999.0    999000   999000   999.0    999000   999.0
  87    9:35   25.4   100    1.8   133     2.2   999.00    683.6    999.0    999000   999000   999.0    999000   999.0
  87    9:40   25.4   100    1.8   133     2.0   999.00    683.6    999.0    999000   999000   999.0    999000   999.0
  87    9:45   25.6   100    1.8   133     2.0   999.00    683.6    999.0    999000   999000   999.0    999000   999.0
  87    9:50   25.9   100    1.8   133     1.8   999.00    683.7    999.0    999000   999000   999.0    999000   999.0
  87    9:55   25.6   100    1.8   133     1.8   999.00    683.8    999.0    999000   999000   999.0    999000   999.0
  87   10:00   25.8   100    1.8   133     2.0   999.00    683.8    999.0    999000   999000   999.0    999000   999.0
  87   10:05   26.0   100    1.8   133     2.5   999.00    683.8    999.0    999000   999000   999.0    999000   999.0
  87   10:10   26.0   100    2.0   133     3.3   999.00    683.7    999.0    999000   999000   999.0    999000   999.0
  87   10:15   25.9   100    2.0   133     3.7   999.00    683.7    999.0    999000   999000   999.0    999000   999.0
  87   10:20   26.1   100    2.1   133     4.4   999.00    683.7    999.0    999000   999000   999.0    999000   999.0
  87   10:25   26.5   100    2.3   132     4.4   999.00    683.8    999.0    999000   999000   999.0    999000   999.0
  87   10:30   26.4   100    2.2   132     4.8   999.00    683.8    999.0    999000   999000   999.0    999000   999.0
  87   10:35   26.4   100    2.0   132     4.0   999.00    683.8    999.0    999000   999000   999.0    999000   999.0
  87   10:40   26.6   100    2.0   132     3.8   999.00    683.8    999.0    999000   999000   999.0    999000   999.0
  87   10:45   27.0   100    2.4   132     5.0   999.00    683.7    999.0    999000   999000   999.0    999000   999.0
  87   10:50   27.0   100    2.2   132     4.0   999.00    683.7    999.0    999000   999000   999.0    999000   999.0
  87   10:55   27.3   100    2.0   137     5.0   999.00    683.7    999.0    999000   999000   999.0    999000   999.0
  87   11:00   27.6   100    2.0   137     3.7   999.00    683.8    999.0    999000   999000   999.0    999000   999.0
  87   11:05   27.2   100    2.4   135     6.6   999.00    683.8    999.0    999000   999000   999.0    999000   999.0
  87   11:10   27.4   100    2.1   134     3.5   999.00    683.8    999.0    999000   999000   999.0    999000   999.0
  87   11:15   27.3   100    2.3   134     4.4   999.00    683.8    999.0    999000   999000   999.0    999000   999.0
  87   11:20   27.2   100    2.0   134     2.7   999.00    683.8    999.0    999000   999000   999.0    999000   999.0
  87   11:25   27.8   100    2.1   134     3.1   999.00    683.8    999.0    999000   999000   999.0    999000   999.0
  87   11:30   27.8    98    2.6   133     5.7   999.00    683.8    999.0    999000   999000   999.0    999000   999.0
  87   11:35   27.8    98    2.3   126     6.3   999.00    683.8    999.0    999000   999000   999.0    999000   999.0
  87   11:40   27.5    97    3.4   104    11.1   999.00    683.7    999.0    999000   999000   999.0    999000   999.0
  87   11:45   27.5    97    3.2   102     8.3   999.00    683.6    999.0    999000   999000   999.0    999000   999.0
  87   11:50   27.6    96    2.8   101     5.0   999.00    683.7    999.0    999000   999000   999.0    999000   999.0
  87   11:55   28.1    95    3.3    97     8.9   999.00    683.7    999.0    999000   999000   999.0    999000   999.0
  87   12:00   27.7    96    5.5    78    18.7   999.00    683.7    999.0    999000   999000   999.0    999000   999.0
  87   12:05   27.4    96    4.3    53    10.7   999.00    683.7    999.0    999000   999000   999.0    999000   999.0
  87   12:10   27.8    97    2.9    54     7.8   999.00    683.7    999.0    999000   999000   999.0    999000   999.0
  87   12:15   28.6    94    3.0    54    10.0   999.00    683.7    999.0    999000   999000   999.0    999000   999.0
  87   12:20   29.2    91    2.8    54     4.6   999.00    683.7    999.0    999000   999000   999.0    999000   999.0
  87   12:25   28.9    87    6.1    53    10.9   999.00    683.7    999.0    999000   999000   999.0    999000   999.0
  87   12:30   28.3    89    6.8    52    18.4   999.00    683.7    999.0    999000   999000   999.0    999000   999.0
  87   12:35   27.7    90    4.7    52     9.8   999.00    683.6    999.0    999000   999000   999.0    999000   999.0
  87   12:40   27.9    91    5.3    52    13.5   999.00    683.6    999.0    999000   999000   999.0    999000   999.0
  87   12:45   28.6    92    2.1    52     3.5   999.00    683.7    999.0    999000   999000   999.0    999000   999.0
  87   12:50   29.1    90    2.6    52     5.7   999.00    683.7    999.0    999000   999000   999.0    999000   999.0
  87   12:55   28.4    90    2.7    52     6.5   999.00    683.7    999.0    999000   999000   999.0    999000   999.0
  87   13:00   28.1    91    3.0    52     8.7   999.00    683.7    999.0    999000   999000   999.0    999000   999.0
  87   13:05   28.2    92    5.5    52    15.9   999.00    683.6    999.0    999000   999000   999.0    999000   999.0
  87   13:10   28.2    88    3.8    52    10.0   999.00    683.6    999.0    999000   999000   999.0    999000   999.0
  87   13:15   28.8    89    2.5    52     5.0   999.00    683.6    999.0    999000   999000   999.0    999000   999.0
  87   13:20   28.7    91    5.1    42    18.9   999.00    683.7    999.0    999000   999000   999.0    999000   999.0
  87   13:25   28.2    91    4.8    27    13.5   999.00    683.6    999.0    999000   999000   999.0    999000   999.0
  87   13:30   28.7    93    2.9    27     5.5   999.00    683.6    999.0    999000   999000   999.0    999000   999.0
  87   13:35   29.0    91    3.5    27    11.7   999.00    683.6    999.0    999000   999000   999.0    999000   999.0
  87   13:40   29.2    94    2.4    27     5.2   999.00    683.7    999.0    999000   999000   999.0    999000   999.0
  87   13:45   28.7    96    3.3    27     7.0   999.00    683.7    999.0    999000   999000   999.0    999000   999.0
  87   13:50   28.5    94    2.9    27     7.6   999.00    683.7    999.0    999000   999000   999.0    999000   999.0
  87   13:55   28.2    95    3.8    26    10.6   999.00    683.7    999.0    999000   999000   999.0    999000   999.0
  87   14:00   28.0    97    4.2    26    13.9   999.00    683.8    999.0    999000   999000   999.0    999000   999.0
  87   14:05   27.6    93    6.3    27    15.2   999.00    683.7    999.0    999000   999000   999.0    999000   999.0
  87   14:10   28.1    93    2.4    28     9.8   999.00    683.8    999.0    999000   999000   999.0    999000   999.0
  87   14:15   28.5    93    3.3    27     7.6   999.00    683.8    999.0    999000   999000   999.0    999000   999.0
  87   14:20   28.4    92    2.7    26     7.9   999.00    683.8    999.0    999000   999000   999.0    999000   999.0
  87   14:25   27.4    98    2.2    26     3.5   999.00    683.8    999.0    999000   999000   999.0    999000   999.0
  87   14:30   27.5   100    2.1    26     3.3   999.00    683.8    999.0    999000   999000   999.0    999000   999.0
  87   14:35   27.2   100    4.6    27    14.3   999.00    683.8    999.0    999000   999000   999.0    999000   999.0
  87   14:40   27.6    99    2.4    26     5.2   999.00    683.8    999.0    999000   999000   999.0    999000   999.0
  87   14:45   27.7    97    8.2    28    17.8   999.00    683.9    999.0    999000   999000   999.0    999000   999.0
  87   14:50   27.4    96    6.0    27    13.9   999.00    683.9    999.0    999000   999000   999.0    999000   999.0
  87   14:55   27.3    94    9.6    26    18.9   999.00    683.9    999.0    999000   999000   999.0    999000   999.0
  87   15:00   27.5    94    5.1    26    12.8   999.00    684.0    999.0    999000   999000   999.0    999000   999.0
  87   15:05   27.5    92    8.3    26    21.1   999.00    683.9    999.0    999000   999000   999.0    999000   999.0
  87   15:10   27.6    92    3.4    26    11.3   999.00    684.0    999.0    999000   999000   999.0    999000   999.0
  87   15:15   27.6    93    5.5    26    17.4   999.00    684.0    999.0    999000   999000   999.0    999000   999.0
  87   15:20   27.6    92    7.0    24    15.9   999.00    684.1    999.0    999000   999000   999.0    999000   999.0
  87   15:25   27.6    94    3.6    23    13.7   999.00    684.1    999.0    999000   999000   999.0    999000   999.0
  87   15:30   27.0    97    5.2    23    13.5   999.00    684.2    999.0    999000   999000   999.0    999000   999.0
  87   15:35   26.0   100    2.9    23     5.9   999.00    684.3    999.0    999000   999000   999.0    999000   999.0
  87   15:40   26.3   100    2.6    23     7.4   999.00    684.4    999.0    999000   999000   999.0    999000   999.0
  87   15:45   26.3   100    2.9    23     7.0   999.00    684.4    999.0    999000   999000   999.0    999000   999.0
  87   15:50   26.4    97   11.1    24    19.7   999.00    684.4    999.0    999000   999000   999.0    999000   999.0
  87   15:55   26.3    94    6.7    22    17.4   999.00    684.5    999.0    999000   999000   999.0    999000   999.0
  87   16:00   26.6    92    7.0    21    17.6   999.00    684.6    999.0    999000   999000   999.0    999000   999.0
  87   16:05   26.5    92    7.3    21    16.3   999.00    684.6    999.0    999000   999000   999.0    999000   999.0
  87   16:10   26.5    93    5.1    23    15.0   999.00    684.7    999.0    999000   999000   999.0    999000   999.0
  87   16:15   26.4    94    6.6    22    24.9   999.00    684.8    999.0    999000   999000   999.0    999000   999.0
  87   16:20   26.1    95    8.3    23    16.7   999.00    684.8    999.0    999000   999000   999.0    999000   999.0
  87   16:25   26.0    96   10.7    20    18.7   999.00    684.9    999.0    999000   999000   999.0    999000   999.0
  87   16:30   26.1    97    8.2    20    16.9   999.00    684.9    999.0    999000   999000   999.0    999000   999.0
  87   16:35   26.3    97    8.8    16    19.9   999.00    685.0    999.0    999000   999000   999.0    999000   999.0
  87   16:40   26.2    97    7.1    10    17.6   999.00    685.0    999.0    999000   999000   999.0    999000   999.0
  87   16:45   26.2    96    4.5    11    13.2   999.00    685.2    999.0    999000   999000   999.0    999000   999.0
  87   16:50   26.0    95    7.3     8    17.2   999.00    685.1    999.0    999000   999000   999.0    999000   999.0
  87   16:55   26.2    95    7.1     8    17.4   999.00    685.2    999.0    999000   999000   999.0    999000   999.0
  87   17:00   25.7    96   11.8     7    20.0   999.00    685.2    999.0    999000   999000   999.0    999000   999.0
  87   17:05   25.8    97    3.0     8     8.9   999.00    685.3    999.0    999000   999000   999.0    999000   999.0
  87   17:10   25.7    98    7.5    11    15.2   999.00    685.3    999.0    999000   999000   999.0    999000   999.0
  87   17:15   25.4    98    7.3    10    17.4   999.00    685.4    999.0    999000   999000   999.0    999000   999.0
  87   17:20   25.1    99   13.3    12    19.5   999.00    685.3    999.0    999000   999000   999.0    999000   999.0
  87   17:25   24.9   100   11.6    14    17.8   999.00    685.3    999.0    999000   999000   999.0    999000   999.0
  87   17:30   24.8   100   12.3    19    21.0   999.00    685.3    999.0    999000   999000   999.0    999000   999.0
  87   17:35   24.6   100   16.6    29    26.0   999.00    685.3    999.0    999000   999000   999.0    999000   999.0
  87   17:40   24.4   100   16.2    22    26.2   999.00    685.4    999.0    999000   999000   999.0    999000   999.0
  87   17:45   24.2   100   17.3    13    26.5   999.00    685.4    999.0    999000   999000   999.0    999000   999.0
  87   17:50   24.0   100   14.6     9    25.2   999.00    685.4    999.0    999000   999000   999.0    999000   999.0
  87   17:55   23.9   100   17.0    15    31.0   999.00    685.5    999.0    999000   999000   999.0    999000   999.0
  87   18:00   23.7   100   18.0    17    26.5   999.00    685.6    999.0    999000   999000   999.0    999000   999.0
  87   18:05   23.6   100   18.3    18    28.8   999.00    685.6    999.0    999000   999000   999.0    999000   999.0
  87   18:10   23.4   100   19.2    30    30.3   999.00    685.7    999.0    999000   999000   999.0    999000   999.0
  87   18:15   23.3   100   20.1    14    31.4   999.00    685.6    999.0    999000   999000   999.0    999000   999.0
  87   18:20   23.2   100   19.0    31    29.5   999.00    685.7    999.0    999000   999000   999.0    999000   999.0
  87   18:25   23.2   100   17.8    22    25.6   999.00    685.8    999.0    999000   999000   999.0    999000   999.0
  87   18:30   23.2   100   17.3    31    32.0   999.00    685.9    999.0    999000   999000   999.0    999000   999.0
  87   18:35   23.2   100   16.1    58    27.1   999.00    686.0    999.0    999000   999000   999.0    999000   999.0
  87   18:40   23.1   100   16.3    29    24.5   999.00    686.0    999.0    999000   999000   999.0    999000   999.0
  87   18:45   23.1   100   16.7    24    27.7   999.00    686.1    999.0    999000   999000   999.0    999000   999.0
  87   18:50   23.0   100   13.1    21    19.7   999.00    686.2    999.0    999000   999000   999.0    999000   999.0
  87   18:55   22.9   100   14.2    20    26.5   999.00    686.3    999.0    999000   999000   999.0    999000   999.0
  87   19:00   22.9   100   14.6    18    25.8   999.00    686.3    999.0    999000   999000   999.0    999000   999.0
  87   19:05   23.0   100   12.0    13    24.3   999.00    686.3    999.0    999000   999000   999.0    999000   999.0
  87   19:10   22.9   100   15.1    12    24.5   999.00    686.3    999.0    999000   999000   999.0    999000   999.0
  87   19:15   22.9   100   11.9    11    22.1   999.00    686.4    999.0    999000   999000   999.0    999000   999.0
  87   19:20   22.8   100   14.7    15    30.1   999.00    686.5    999.0    999000   999000   999.0    999000   999.0
  87   19:25   22.6   100   12.0    12    20.4   999.00    686.6    999.0    999000   999000   999.0    999000   999.0
  87   19:30   22.5   100   14.8     9    28.6   999.00    686.6    999.0    999000   999000   999.0    999000   999.0
  87   19:35   22.5   100   15.5   356    23.0   999.00    686.6    999.0    999000   999000   999.0    999000   999.0
  87   19:40   22.6   100   14.7    12    24.1   999.00    686.7    999.0    999000   999000   999.0    999000   999.0
  87   19:45   22.5   100   14.0     9    19.9   999.00    686.8    999.0    999000   999000   999.0    999000   999.0
  87   19:50   22.6   100    5.7   358    10.9   999.00    686.9    999.0    999000   999000   999.0    999000   999.0
  87   19:55   22.6   100    4.2   360    13.2   999.00    687.0    999.0    999000   999000   999.0    999000   999.0
  87   20:00   22.7   100    2.8   359     8.3   999.00    687.1    999.0    999000   999000   999.0    999000   999.0
  87   20:05   22.9   100    2.7     0    12.2   999.00    687.2    999.0    999000   999000   999.0    999000   999.0
  87   20:10   22.9   100    4.7     1    14.1   999.00    687.3    999.0    999000   999000   999.0    999000   999.0
  87   20:15   23.0   100    4.8     0    12.4   999.00    687.3    999.0    999000   999000   999.0    999000   999.0
  87   20:20   22.9   100    9.5     0    16.5   999.00    687.3    999.0    999000   999000   999.0    999000   999.0
  87   20:25   22.8   100    3.7     0    13.2   999.00    687.4    999.0    999000   999000   999.0    999000   999.0
  87   20:30   22.8   100    8.2     0    16.3   999.00    687.4    999.0    999000   999000   999.0    999000   999.0
  87   20:35   22.6   100    4.6     1    16.1   999.00    687.4    999.0    999000   999000   999.0    999000   999.0
  87   20:40   22.6   100    7.4     0    16.9   999.00    687.5    999.0    999000   999000   999.0    999000   999.0
  87   20:45   22.5   100    5.7     1    15.0   999.00    687.5    999.0    999000   999000   999.0    999000   999.0
  87   20:50   22.5   100    5.4     1    16.1   999.00    687.5    999.0    999000   999000   999.0    999000   999.0
  87   20:55   22.4   100    6.3     2    16.1   999.00    687.5    999.0    999000   999000   999.0    999000   999.0
  87   21:00   22.4   100    8.7     2    18.0   999.00    687.5    999.0    999000   999000   999.0    999000   999.0
  87   21:05   22.1   100   14.6     6    21.5   999.00    687.4    999.0    999000   999000   999.0    999000   999.0
  87   21:10   22.0   100   15.0     9    22.6   999.00    687.4    999.0    999000   999000   999.0    999000   999.0
  87   21:15   21.9   100   12.2     8    21.3   999.00    687.5    999.0    999000   999000   999.0    999000   999.0
  87   21:20   21.8   100   10.7    13    19.9   999.00    687.5    999.0    999000   999000   999.0    999000   999.0
  87   21:25   21.7   100   11.0    29    21.7   999.00    687.4    999.0    999000   999000   999.0    999000   999.0
  87   21:30   21.7   100   12.7    23    20.6   999.00    687.4    999.0    999000   999000   999.0    999000   999.0
  87   21:35   21.7   100   14.4    15    22.3   999.00    687.3    999.0    999000   999000   999.0    999000   999.0
  87   21:40   21.6   100    9.5    14    21.7   999.00    687.4    999.0    999000   999000   999.0    999000   999.0
  87   21:45   21.6   100   11.8     6    22.1   999.00    687.3    999.0    999000   999000   999.0    999000   999.0
  87   21:50   21.5   100   12.4     7    27.5   999.00    687.4    999.0    999000   999000   999.0    999000   999.0
  87   21:55   21.4   100   13.5    16    24.1   999.00    687.3    999.0    999000   999000   999.0    999000   999.0
  87   22:00   21.3   100   12.6    17    20.4   999.00    687.4    999.0    999000   999000   999.0    999000   999.0
  87   22:05   21.3   100   11.8    15    19.5   999.00    687.4    999.0    999000   999000   999.0    999000   999.0
  87   22:10   21.3   100   13.7    14    22.3   999.00    687.3    999.0    999000   999000   999.0    999000   999.0
  87   22:15   21.3   100   12.7    15    19.5   999.00    687.4    999.0    999000   999000   999.0    999000   999.0
  87   22:20   21.3   100   11.5    12    22.5   999.00    687.5    999.0    999000   999000   999.0    999000   999.0
  87   22:25   21.3   100    9.1    10    19.3   999.00    687.5    999.0    999000   999000   999.0    999000   999.0
  87   22:30   21.2   100    5.8    10    14.3   999.00    687.5    999.0    999000   999000   999.0    999000   999.0
  87   22:35   21.0   100   13.5    18    24.7   999.00    687.6    999.0    999000   999000   999.0    999000   999.0
  87   22:40   20.9   100   14.7    23    21.3   999.00    687.5    999.0    999000   999000   999.0    999000   999.0
  87   22:45   20.9   100   12.4    23    19.7   999.00    687.6    999.0    999000   999000   999.0    999000   999.0
  87   22:50   21.0   100   12.6    24    22.3   999.00    687.6    999.0    999000   999000   999.0    999000   999.0
  87   22:55   21.0   100    9.8    15    24.0   999.00    687.5    999.0    999000   999000   999.0    999000   999.0
  87   23:00   21.1   100   12.3    15    18.9   999.00    687.4    999.0    999000   999000   999.0    999000   999.0
  87   23:05   21.0   100   13.3    18    24.9   999.00    687.4    999.0    999000   999000   999.0    999000   999.0
  87   23:10   21.0   100   13.4    19    21.1   999.00    687.4    999.0    999000   999000   999.0    999000   999.0
  87   23:15   21.0   100   12.7    16    21.9   999.00    687.4    999.0    999000   999000   999.0    999000   999.0
  87   23:20   20.8   100    8.5    16    17.4   999.00    687.4    999.0    999000   999000   999.0    999000   999.0
  87   23:25   20.9   100   10.4    10    17.1   999.00    687.4    999.0    999000   999000   999.0    999000   999.0
  87   23:30   20.9   100   11.8     6    23.2   999.00    687.3    999.0    999000   999000   999.0    999000   999.0
  87   23:35   20.8   100   13.3    14    19.7   999.00    687.2    999.0    999000   999000   999.0    999000   999.0
  87   23:40   20.5   100   14.7    10    24.9   999.00    687.0    999.0    999000   999000   999.0    999000   999.0
  87   23:45   20.3   100   14.9    10    26.9   999.00    686.9    999.0    999000   999000   999.0    999000   999.0
  87   23:50   20.2   100   11.8    15    20.6   999.00    686.9    999.0    999000   999000   999.0    999000   999.0
  87   23:55   20.3   100   10.1    16    16.3   999.00    687.1    999.0    999000   999000   999.0    999000   999.0
  88    0:00   20.3   100   11.7    13    23.6   999.00    687.1    999.0    999000   999000   999.0    999000   999.0
  88    0:05   20.4   100    5.2    11    17.6   999.00    687.2    999.0    999000   999000   999.0    999000   999.0
  88    0:10   20.4   100    9.4     9    18.9   999.00    687.4    999.0    999000   999000   999.0    999000   999.0
  88    0:15   20.5   100    5.1     9    14.1   999.00    687.5    999.0    999000   999000   999.0    999000   999.0
  88    0:20   20.3   100    8.7     4    25.4   999.00    687.5    999.0    999000   999000   999.0    999000   999.0
  88    0:25   20.3   100    4.0     2    12.2   999.00    687.5    999.0    999000   999000   999.0    999000   999.0
  88    0:30   20.3   100    3.6     2    10.0   999.00    687.4    999.0    999000   999000   999.0    999000   999.0
  88    0:35   20.3   100    3.5     2    12.4   999.00    687.4    999.0    999000   999000   999.0    999000   999.0
  88    0:40   20.4   100    3.3     2    10.7   999.00    687.4    999.0    999000   999000   999.0    999000   999.0
  88    0:45   20.3   100    6.3     2    15.2   999.00    687.4    999.0    999000   999000   999.0    999000   999.0
  88    0:50   20.2   100    4.8     2    13.9   999.00    687.4    999.0    999000   999000   999.0    999000   999.0
  88    0:55   20.2   100    3.1     2    10.9   999.00    687.4    999.0    999000   999000   999.0    999000   999.0
  88    1:00   20.2   100    3.6     1    10.2   999.00    687.4    999.0    999000   999000   999.0    999000   999.0
  88    1:05   20.2   100    2.0     1     3.5   999.00    687.4    999.0    999000   999000   999.0    999000   999.0
  88    1:10   20.2   100    3.0     1    10.4   999.00    687.5    999.0    999000   999000   999.0    999000   999.0
  88    1:15   20.1   100    2.9     2     9.4   999.00    687.6    999.0    999000   999000   999.0    999000   999.0
  88    1:20   20.1   100    3.8     3    15.2   999.00    687.6    999.0    999000   999000   999.0    999000   999.0
  88    1:25   20.1   100    6.0     2    12.4   999.00    687.6    999.0    999000   999000   999.0    999000   999.0
  88    1:30   20.0   100    7.3     5    15.0   999.00    687.4    999.0    999000   999000   999.0    999000   999.0
  88    1:35   20.1   100   10.7     7    18.9   999.00    687.3    999.0    999000   999000   999.0    999000   999.0
  88    1:40   19.9   100    6.1     7    15.0   999.00    687.3    999.0    999000   999000   999.0    999000   999.0
  88    1:45   20.0   100   10.5     7    19.7   999.00    687.3    999.0    999000   999000   999.0    999000   999.0
  88    1:50   19.9   100    9.7     9    18.4   999.00    687.3    999.0    999000   999000   999.0    999000   999.0
  88    1:55   19.8   100    8.7     9    18.0   999.00    687.2    999.0    999000   999000   999.0    999000   999.0
  88    2:00   19.6   100    6.4    15    18.2   999.00    687.3    999.0    999000   999000   999.0    999000   999.0
  88    2:05   19.6   100    6.1    35    16.5   999.00    687.2    999.0    999000   999000   999.0    999000   999.0
  88    2:10   19.7   100    2.3    34    11.3   999.00    687.1    999.0    999000   999000   999.0    999000   999.0
  88    2:15   19.7   100    2.4    34    12.4   999.00    687.2    999.0    999000   999000   999.0    999000   999.0
  88    2:20   19.5   100    3.2    34    13.9   999.00    687.4    999.0    999000   999000   999.0    999000   999.0
  88    2:25   19.6   100    4.1    32    14.4   999.00    687.4    999.0    999000   999000   999.0    999000   999.0
  88    2:30   19.6   100    6.1    32    13.5   999.00    687.6    999.0    999000   999000   999.0    999000   999.0
  88    2:35   19.7   100    3.4    31    13.3   999.00    687.7    999.0    999000   999000   999.0    999000   999.0
  88    2:40   19.8   100    2.7    31     7.9   999.00    687.7    999.0    999000   999000   999.0    999000   999.0
  88    2:45   19.9   100    2.7    31     9.8   999.00    687.6    999.0    999000   999000   999.0    999000   999.0
  88    2:50   20.0   100    2.0    31     4.2   999.00    687.7    999.0    999000   999000   999.0    999000   999.0
  88    2:55   19.9   100    2.3    31     4.6   999.00    687.8    999.0    999000   999000   999.0    999000   999.0
  88    3:00   20.0   100    2.0    31     3.3   999.00    687.8    999.0    999000   999000   999.0    999000   999.0

Return to DRI Storm Peak Lab. graphs page.


Western Regional Climate Center,wrcc@dri.edu